Tracking 25723 objects as of 26-Jun-2022
HD Live streaming from Space Station
objects crossing your sky now

DMSP 5D-2 F13 DEB

Track DMSP 5D-2 F13 DEB now!
10-day predictions


NORAD ID: 42289
Int'l Code: 1995-015HF
Perigee: 820.1 km
Apogee: 897.8 km
Inclination: 98.9 °
Period: 102.0 minutes
Semi major axis: 7229 km
RCS: Unknown
Launch date: March 24, 1995
Source: United States (US)
Launch site: AIR FORCE WESTERN TEST RANGE (AFWTR)

Note: This is SATELLITE DEBRIS
aabbcc
Your satellite tracking list
Your tracking list is empty




NASA's NSSDC Master Catalog

Two Line Element Set (TLE):
1 42289U 95015HF  22173.44100803  .00003815  00000-0  20713-2 0  9992
2 42289  98.8663 151.6570 0053688 236.2211 123.3841 14.12208324365754
Source of the keplerian elements: AFSPC